Flag for U.S.A. Weather past 2 weeks in Charlotte, North Carolina, U.S.A.

Now
38 °F

Passing clouds.


Feels Like: 34 °F
Forecast: 28 / 48 °F
Wind: 5 mph from East

Location: Charlotte / Douglas International Airport

Current Time: Feb 26, 2015 at 7:40:09 PM

Latest Report: Feb 26, 2015 at 6:52 PM


Visibility: 10 mi

Pressure: 30.05 "Hg

Humidity: 73%

Dew point: 30 °F

Location of CharlotteLocation

Historic Weather in Charlotte — Graph

°F

Charlotte temperature yesterday

Maximum temperature yesterday: 41 °F (at 1:52 PM)
Minimum temperature yesterday: 30 °F (at 4:03 AM)
Average temperature yesterday: 35 °F

Past Weeks' High & Low Weather Summary

 TemperatureHumidityPressure
High56 °F (Feb 22, 2:52 PM)93% (Feb 22, 6:52 AM)30.51 "Hg (Feb 22, 6:52 AM)
Low8 °F (Feb 20, 5:52 AM)15% (Feb 15, 12:52 PM)29.69 "Hg (Feb 26, 3:52 AM)
Average33 °F55%30.10 "Hg
* Reported Feb 11 5:52 PM — Feb 26 5:52 PM, Charlotte, Weather by CustomWeather, © 2015

Note: Actual official high and low records may vary slightly from our data, if they occured in-between our weather recording intervals... More about our weather records

Advertising

Charlotte weather history for previous 24 hours

 ConditionsComfort  
Time TempWeatherWind HumidityBarometerVisibility
5:52 PM
Thu, Feb 26
39 °FBroken clouds.No wind67%30.03 "Hg10 mi
4:52 PM41 °FPartly sunny.No wind65%30.00 "Hg10 mi
3:52 PM42 °FPartly sunny.5 mph62%29.97 "Hg10 mi
2:52 PM39 °FPartly sunny.3 mph67%29.95 "Hg10 mi
1:52 PM37 °FOvercast.8 mph73%29.91 "Hg10 mi
12:59 PM37 °FPartly sunny.8 mph70%29.91 "Hg10 mi
11:52 AM35 °FOvercast.7 mph78%29.91 "Hg10 mi
10:52 AM34 °FOvercast.7 mph82%29.90 "Hg10 mi
9:52 AM34 °FOvercast.7 mph82%29.87 "Hg10 mi
8:52 AM34 °FMore clouds than sun.9 mph82%29.82 "Hg10 mi
7:52 AM33 °FMore clouds than sun.8 mph85%29.80 "Hg10 mi
6:52 AM33 °FOvercast.9 mph85%29.77 "Hg10 mi
5:52 AM33 °FDrizzle. Fog.13 mph85%29.75 "Hg6 mi
4:52 AM33 °FLight rain. Mostly cloudy.13 mph85%29.70 "Hg10 mi
3:52 AM33 °FLight snow. Fog.14 mph88%29.69 "Hg6 mi
2:52 AM33 °FLight snow. Fog.14 mph88%29.71 "Hg3 mi
1:52 AM33 °FRain. Fog.10 mph88%29.73 "Hg4 mi
12:52 AM33 °FLight rain. Low clouds.7 mph88%29.73 "Hg7 mi
11:52 PM
Wed, Feb 25
33 °FSleet. Fog.9 mph88%29.76 "Hg4 mi
10:52 PM33 °FSleet. Fog.6 mph88%29.82 "Hg3 mi
9:52 PM33 °FSleet. Fog.6 mph88%29.83 "Hg2 mi
8:52 PM33 °FSleet. Fog.3 mph92%29.83 "Hg4 mi
7:52 PM33 °FLight snow. Fog.6 mph88%29.86 "Hg2 mi
Weather by CustomWeather, © 2015

See weather overviewHow to use our weather pages